Regional Weather Roundup
Issued by NWS Green Bay, WI

Home | Current Version | Previous Version | Text Only | Print | Product List | Glossary On
Versions: 1 2 3 4 5 6 7 8 9 10 11 12 13 14 15 16 17 18 19 20 21 22 23 24 25 26 27 28 29 30 31 32 33 34 35 36 37 38 39 40 41 42 43 44 45 46 47 48 49 50
000
ASUS43 KGRB 252311
RWRGRB

NORTH-CENTRAL AND NORTHEAST WISCONSIN REGIONAL WEATHER ROUNDUP
NATIONAL WEATHER SERVICE GREEN BAY WI
600 PM CDT SUN JUN 25 2017

WIZ005-009-010>012-018-019-260000-
NORTH CENTRAL WISCONSIN

CITY           SKY/WX    TMP DP  RH WIND       PRES   REMARKS
IRONWOOD       LGT RAIN  51  49  92 W13G20    30.05S
MANITOWISH WTR CLOUDY    51  51 100 NW10G18   30.04S
ARBOR VITAE    CLOUDY    56  54  92 NW10      30.03F
EAGLE RIVER    RAIN      53  52  95 NW7       30.02S
LAND O LAKES   LGT RAIN  54  53  97 W6        30.02F
RHINELANDER    CLOUDY    55  52  89 NW12G17   30.04S
PHILLIPS       CLOUDY    55  49  80 NW7       30.06S
ANTIGO         CLOUDY    55  52  89 NW12G18   30.04S
TOMAHAWK       NOT AVBL
MERRILL        CLOUDY    58  52  79 NW9G18    30.05S
$$

WIZ013-073-260000-
NORTHEAST WISCONSIN

CITY           SKY/WX    TMP DP  RH WIND       PRES   REMARKS
IRON MOUNTAIN  LGT RAIN  56  51  84 VRB3      30.01R
MARINETTE      CLOUDY    61  54  77 CALM      30.00S
OCONTO         CLOUDY    59  53  81 NW7       29.99S
$$

WIZ017-030-035>037-045-260000-
CENTRAL WISCONSIN

CITY           SKY/WX    TMP DP  RH WIND       PRES   REMARKS
MEDFORD        PTSUNNY   55  50  81 N16       30.07R
WAUSAU         CLOUDY    58  50  75 NW13      30.03S
MOSINEE        PTSUNNY   57  54  88 NW12      30.06
MARSHFIELD     PTSUNNY   59  53  80 NW10      30.07S
WISC RAPIDS    LGT RAIN  59  56  89 NW9       30.08F
STEVENS POINT  CLOUDY    57  54  89 W8        30.06S
WAUPACA        DRIZZLE   58  56  91 NW8       30.05R
SHAWANO        LGT RAIN  58  54  87 W6        30.01F
CLINTONVILLE   CLOUDY    59  50  72 NW9G16    30.03S
WAUTOMA        LGT RAIN  56  53  90 NW10      30.07R
$$

WIZ038-039-048-051-260000-
FOX VALLEY

CITY           SKY/WX    TMP DP  RH WIND       PRES   REMARKS
NWS GREEN BAY  LGT RAIN  65  54  67 W12       30.01R
APPLETON       LGT RAIN  59  48  67 W12G18    30.02R
OSHKOSH        CLOUDY    63  49  60 W7G18     30.03S
FOND DU LAC    CLOUDY    65  48  54 W18       30.04R
$$

WIZ022-050-052-260000-
EAST CENTRAL WISCONSIN

CITY           SKY/WX    TMP DP  RH WIND       PRES   REMARKS
EPHRAIM        LGT RAIN  57  55  92 W3        29.99R
WASHINGTON ISL CLOUDY    60  53  77 SW5       29.98R
STURGEON BAY     N/A     62  51  67 W7G16       N/A
MANITOWOC      MOSUNNY   65  49  56 W16G25    30.01R
SHEBOYGAN      MOSUNNY   67  51  56 W17G25    30.01S
$$

LMZ563-521-522-541>543-260000-
LAKESHORE

STATION/POSITION TIME  TEMP    WIND        PRES    VSBY  WAVE
                       AIR SEA DIR/SP/G                  HT/PER
                 (UTC) (F)     (DEG/KT/KT) (MB)    (MI)  (FT/S)
SHEBOYGAN LKSHOR 2300   67     280/ 14/ 18 1016.0R
KEWAUNEE LKSHORE 2236   55      80/  3/  4 1015.6R
NORTHPORT PIER   2240   61      CALM  /  4 1015.2R
N MID LAKE BUOY  2250   58 57  210/ 10/ 10 1015.8R         1/ 5
S GREEN BAY BUOY 2230   59     340/ 12/ 14 1015.4R
CHAMBERS ISLAND  2240   58     220/  3/  3 1015.2F
MENOMINEE LKSHOR 2236           80/  6/  6 1014.7F
$$




USA.gov is the U.S. government's official web portal to all federal, state and local government web resources and services.